CSG-2

Last updated on Wed Sep 17 2025 00:02:31 GMT+0000 (Coordinated Universal Time)

1 51444U 22008A 25259.60003115 .00000379 00000+0 54138-4 0 9992 2 51444 97.8907 82.1839 0001403 88.5315 271.6059 14.82148244196069
UTC large
Height (km)
Speed (km/s)
/
Latitude / Longitude
Inclination (degrees)
Orbital Period (minutes)
Azimuth
Elevation
Range (km)
Doppler Factor

Next 0 passes for location: London (51.5072 / 0.1276)

Sorry there are no passes over London.